Location: Unspecified
(0.0000°N, 0.0000°E)
Time: 08:19:55
(UTC+00:00)

Explorer 11/Cluster Stage 4 - Pass Details

Date: 23 July 2020
Orbit: 467 x 1259 km, 28.8° (Epoch: 03 August)

Event Time Altitude Azimuth Distance (km) Brightness Sun altitude
Rises 14:41:45 0° 294° (WNW) 3,334 10.5 47.1°
Reaches altitude 10° 14:44:04 10° 291° (WNW) 2,517 10.2 46.6°
Maximum altitude 14:50:12 66° 210° (SSW) 1,101 8.1 45.3°
Drops below altitude 10° 14:57:45 10° 129° (SE) 3,062 9.3 43.6°
Sets 15:00:50 0° 126° (SE) 4,103 9.8 42.9°
